Skip Page Navigation
NASA JPL Caltech
NASA Logo - Jet Propulsion Laboratory + View the NASA Portal
+ Center for Near-Earth Object Studies
JPL Home Earth Solar System Stars & Galaxies Technology
JPL Solar System Dynamics
BODIES ORBITS EPHEMERIDES TOOLS PHYSICAL DATA DISCOVERY FAQ SITE MAP
JPL Small-Body Database Browser
Search: [ help ]  
259034 (2002 TV232)
Classification: Main-belt Asteroid          SPK-ID: 2259034
Ephemeris | Orbit Diagram | Orbital Elements | Mission Design | Physical Parameters | Discovery Circumstances ]

[ show orbit diagram ]
Orbital Elements at Epoch 2459000.5 (2020-May-31.0) TDB
Reference: JPL 16 (heliocentric ecliptic J2000)
 Element Value Uncertainty (1-sigma)   Units 
e .2259936620958838 5.239e-08  
a 2.623373592803694 1.7195e-08 au
q 2.030507787520351 1.4379e-07 au
i 12.73781953019948 5.2175e-06 deg
node 308.538633720124 2.0498e-05 deg
peri 139.3335155227753 2.35e-05 deg
M 8.114480166869969 1.0167e-05 deg
tp 2458965.517822178700
(2020-Apr-26.01782218)
4.3685e-05 TDB
period 1551.98900689725
4.25
1.5259e-05
4.178e-08
d
yr
n .2319604059050104 2.2806e-09 deg/d
Q 3.216239398087036 2.1081e-08 au
  Orbit Determination Parameters
   # obs. used (total)      504  
   data-arc span      9701 days (26.56 yr)  
   first obs. used      1993-08-13  
   last obs. used      2020-03-05  
   planetary ephem.      DE431  
   SB-pert. ephem.      SB431-N16  
   condition code      0  
   norm. resid. RMS      .55468  
   source      ORB  
   producer      Otto Matic  
   solution date      2020-Nov-11 23:12:51  

Additional Information
 Earth MOID = 1.06426 au 
 Jupiter MOID = 2.02766 au 
 T_jup = 3.333 
[ show covariance matrix ]

Ephemeris | Orbit Diagram | Orbital Elements | Mission Design | Physical Parameters | Discovery Circumstances ]

Physical Parameter Table
Parameter Symbol Value Units Sigma Reference Notes
absolute magnitude H 16.1   n/a MPO454929  

259034 (2002 TV232)          Discovered 2002-Oct-06 by LINEAR at Socorro
Reference: 20110119/Numbers.arcLast Updated: 2011-01-25
Ephemeris | Orbit Diagram | Orbital Elements | Mission Design | Physical Parameters | Discovery Circumstances ]
ABOUT SSD CREDITS/AWARDS PRIVACY/COPYRIGHT GLOSSARY LINKS
FirstGov 2021-Jan-17 23:17 UT
(server date/time)  
NASA Home Page
Site Manager:   Ryan S. Park
Webmaster  Alan B. Chamberlin